カタログに戻る

CZ-2D R/B

運用中VLEO
NORAD 68141·ROCKET BODY·🇨🇳 China

打ち上げ Mar 12, 2026 から Xichang Satellite Launch Center

Loading…

次のパス (今後24時間)

TLE

最新Source: Space-Track

元期: Sep 14, 2026, 21:11 UTC

1 68141U 26048C   26257.88286091  .00001133  00000-0  10169-3 0  9992
2 68141  35.1293  85.4672 0015136 160.4380 199.6912 14.95971144 27848

AllMySatでCZ-2D R/Bをリアルタイム追跡

Download on the App Store